Regional Weather Roundup
Issued by NWS Jackson, KY

Home | Current Version | Previous Version | Graphics & Text | Print | Product List | Glossary On
Versions: 1 2 3 4 5 6 7 8 9 10 11 12 13 14 15 16 17 18 19 20 21 22 23 24 25 26 27
000
ASUS43 KJKL 270010
RWRJKL

EAST KENTUCKY HOURLY WEATHER ROUNDUP
NATIONAL WEATHER SERVICE JACKSON KY
800 PM EDT WED JUL 26 2017

NOTE: "FAIR" INDICATES FEW OR NO CLOUDS BELOW 12,000 FEET WITH
NO SIGNIFICANT WEATHER AND/OR OBSTRUCTIONS TO VISIBILITY.

* THESE REPORTS ARE NOT UNDER NWS QUALITY CONTROL AND MAY NOT
  REPORT WEATHER SUCH AS PRECIPITATION AND FOG.

KYZ079-080-083-085-087-088-110-112-115-119-120-270100
...EASTERN KENTUCKY...

CITY           SKY/WX    TMP DP  RH WIND       PRES   REMARKS
JACKSON        CLEAR     83  69  62 CALM      30.08S
6HR MIN TEMP:  83; 6HR MAX TEMP:  87;

LONDON         CLEAR     87  66  49 CALM      30.07R
6HR MIN TEMP:  85; 6HR MAX TEMP:  91;

SOMERSET*      PTCLDY    86  64  48 CALM      30.06S
MONTICELLO*    CLEAR     82  78  88 NW3       30.07R HX  91
6HR MIN TEMP:  82; 6HR MAX TEMP:  92;

WILLIAMSBURG*  CLEAR     84  72  65 CALM      30.07R
MIDDLESBORO*   CLEAR     83  73  69 W3        30.08R
6HR MIN TEMP:  83; 6HR MAX TEMP:  89;

HARLAN APT*    CLEAR     82  70  65 CALM      30.10R
PIKE CO APT*     N/A     80  68  65 N3        30.09S
BIG SANDY APT* PTCLDY    81  70  68 CALM      30.08S
6HR MIN TEMP:  81; 6HR MAX TEMP:  87;

MOREHEAD APT*  CLEAR     81  68  65 CALM      30.08R
ASHLAND*       CLEAR     79  73  83 CALM      30.03R
$$

KYZ035-036-041-042-044-050-067-078-099-270100
...CENTRAL KENTUCKY...

CITY           SKY/WX    TMP DP  RH WIND       PRES   REMARKS
MT STERLING*   CLOUDY    84  70  61 CALM      30.06F
FLEMING/MASON* CLEAR     81  69  66 CALM      30.06F
DANVILLE*      PTCLDY    84  70  61 CALM      30.06S
LEXINGTON      PTCLDY    85  70  60 S3        30.04F
6HR MIN TEMP:  85; 6HR MAX TEMP:  89;

FRANKFORT      PTCLDY    85  70  60 SE7       30.01F
6HR MIN TEMP:  85; 6HR MAX TEMP:  88;

LOUISVILLE     CLOUDY    88  73  61 S7        30.00S HX  95
6HR MIN TEMP:  88; 6HR MAX TEMP:  92;

LEBANON*         N/A     86  70  58 CALM      30.03S HX  90
GLASGOW*       PTCLDY    85  72  65 CALM      30.02S HX  91
BOWLING GREEN  PTCLDY    88  75  65 SE7       30.00S HX  97
6HR MIN TEMP:  88; 6HR MAX TEMP:  96;

$$

KYZ091>093-OHZ055-061-077-WVZ005-015-034-035-042-270100
...SOUTHERN OHIO/WEST VIRGINIA...

CITY           SKY/WX    TMP DP  RH WIND       PRES   REMARKS
COVINGTON      CLOUDY    83  72  69 CALM      30.03F
COLUMBUS       CLOUDY    78  60  53 S3        30.06R
DAYTON         CLOUDY    79  61  53 W3        30.06S
WILMINGTON     CLOUDY    76  68  76 SE3       30.05F
HUNTINGTON     CLEAR     83  64  52 W3        30.04S
CHARLESTON     PTCLDY    82  62  50 W3        30.05S
PINEVILLE*     CLEAR     75  69  80 MISG      30.14S
BECKLEY        CLEAR     77  65  66 SE5       30.14F
BLUEFIELD      CLEAR     77  59  53 W3        30.17F
LOGAN CO APT*    N/A     81  61  50 CALM      30.09S
$$

VAZ002-007-008-TNZ017-027-036-066-071-270100
...SOUTHWEST VIRGINIA/EAST TENNESSEE...

CITY           SKY/WX    TMP DP  RH WIND       PRES   REMARKS
WISE*          CLEAR     79  61  53 SW3       30.17S
JONESVILLE*      N/A     86  70  58 CALM      30.10S HX  90
ABINGDON*      CLEAR     85  65  52 CALM      30.12S
BRISTOL        PTCLDY    87  64  46 N6        30.08S
MORRISTOWN*    CLEAR     88  68  51 NW5       30.06S HX  91
SEVIERVILLE*   PTCLDY    91  64  40 CALM      30.04S HX  93
KNOXVILLE      CLOUDY    90  67  46 W6        30.04S HX  93
LAFOLLETTE*    CLEAR     86  73  66 CALM      30.10R HX  93
OAK RIDGE      CLEAR     90  71  53 W3        30.06S HX  96
CROSSVILLE     PTCLDY    83  71  67 S3        30.12R
NASHVILLE      MOCLDY    91  71  51 SW5       30.02S HX  97
$$

...KEY TO REMARKS...
VSB - VISIBILITY IN MILES
WCI - WIND CHILL INDEX
HX  - HEAT INDEX

$$




USA.gov is the U.S. government's official web portal to all federal, state and local government web resources and services.